Regional Weather Roundup
Issued by NWS

Home | Current Version | Previous Version | Graphics & Text | Print | Product List | Glossary On
Versions: 1 2 3 4 5 6 7 8 9 10 11 12 13 14 15 16 17 18 19 20 21 22 23 24 25 26 27
000
ASUS45 KBOU 230807
RWRCO

WEATHER ROUNDUP FOR COLORADO
NATIONAL WEATHER SERVICE DENVER/BOULDER CO
100 AM MST THU FEB 23 2017

NOTE: "FAIR" INDICATES FEW OR NO CLOUDS BELOW 12000 FEET WITH NO
SIGNIFICANT WEATHER AND/OR OBSTRUCTIONS TO VISIBILITY.

COZ001>005-013-030-031-230900-
...NORTHWEST COLORADO...

CITY           SKY/WX    TMP DP  RH WIND       PRES   REMARKS
CRAIG          LGT SNOW  30  28  92 CALM      29.56F VSB 3/4
HAYDEN         MOCLDY    28  25  86 W14       29.54S WCI  17
MEEKER         CLOUDY    32  28  85 SE5       29.54F WCI  27
MOUNT WERNER   NOT AVBL
STEAMBOAT SPGS CLOUDY    28  27  96 CALM      29.52F
WALDEN         NOT AVBL
$$

COZ006>008-011-230900-
...WEST CENTRAL VALLEYS...

CITY           SKY/WX    TMP DP  RH WIND       PRES   REMARKS
GRAND JUNCTION MOCLDY    45  27  49 NW5       29.51S
MONTROSE       FAIR      47  16  29 SW13G33   29.62S
EAGLE          FAIR      44  14  29 SW16G25   29.55F
RIFLE          FAIR      50  19  29 SW14G24   29.49F
DELTA          FAIR      50  21  32 S14G21    29.57F
NUCLA          FAIR      45  21  39 S21G30    29.63F
$$

COZ017>023-064>068-230900-
...SOUTHWEST COLORADO...

CITY           SKY/WX    TMP DP  RH WIND       PRES   REMARKS
DURANGO        MOCLDY    36  18  48 CALM      29.71F
CORTEZ         FAIR      41  23  48 S10       29.68F
PAGOSA SPRINGS FAIR      39  20  45 SW5G16    29.72F
TELLURIDE      MOCLDY    33   9  35 SW28G39   29.68F WCI  20
WOLF CREEK PAS CLOUDY    19  18  93 SW38G56   29.73F FOG     WCI  -1
$$

COZ009-010-012-014-032>034-037-058>063-230900-
...CENTRAL COLORADO...

CITY           SKY/WX    TMP DP  RH WIND       PRES   REMARKS
ASPEN          FAIR      38   9  30 VRB6      29.55F
BUENA VISTA    FAIR      35  18  50 SE12G18   29.62F WCI  27
COPPER MTN     CLOUDY    28  10  47 MISG      29.65F
BERTHOUD PASS  HAZE      12   3  67 SE29      29.65F VSB<1/4 WCI  -9
COTTONWOOD PAS FAIR      36   1  23 SW21G26   29.65F
GUNNISON       FAIR      23  18  81 N3        29.63F
KREMMLING      MOCLDY    36  27  69 CALM      29.55F
LEADVILLE      FAIR      28  10  46 S16G25    29.61F WCI  16
MONARCH PASS   FAIR      21   9  58 SW43G48   29.77F WCI   0
SALIDA         NOT AVBL
SUNLIGHT       NOT AVBL
WILKERSON PASS MOCLDY    23  12  63 S13G28    29.70F WCI  11
$$

COZ069>075-230900-
...SAN LUIS VALLEY/SANGRE DE CRISTO MOUNTAINS...

CITY           SKY/WX    TMP DP  RH WIND       PRES   REMARKS
ALAMOSA        FAIR      38  23  55 S23G32    29.68F
LA VETA PASS   CLOUDY    30  19  64 NE23G39   29.74F WCI  17
SAGUACHE       FAIR      27  21  80 CALM      29.67F
$$

COZ035-036-038>040-230900-
...NORTHERN COLORADO FRONT RANGE...

CITY           SKY/WX    TMP DP  RH WIND       PRES   REMARKS
DENVER INTL AP FAIR      32  24  72 NW12      29.69F WCI  23
DMNS CITY PARK   N/A     34  24  67 NE5       29.70F WCI  29
AURORA         NOT AVBL
FRONT RANGE AP FAIR      30  23  74 W9        29.70F WCI  22
ERIE MUNI ARPT CLOUDY    29  24  82 CALM      29.73S
BOULDER MUN AP CLOUDY    34  27  75 N3        29.71F
CENTENNIAL     FAIR      30  23  75 NW5       29.69F WCI  25
BROOMFIELD     FAIR      34  27  75 N8        29.72S WCI  27
FORT COLLINS   MOCLDY    35  27  72 N5        29.73F WCI  31
LONGMONT       CLOUDY    37  28  72 N3        29.74F
$$

COZ041-046-047-076>085-087-088-230900-
...PIKES PEAK/PALMER DIVIDE AND SOUTHERN FOOTHILLS...

CITY           SKY/WX    TMP DP  RH WIND       PRES   REMARKS
COLO. SPRINGS  FAIR      34  15  46 N16       29.63F WCI  24
A. F. ACADEMY  FAIR      31  15  51 N18       29.63F WCI  19
SCHRIEVER AFB  FAIR      33  15  48 N17G24    29.63F WCI  22
ELLICOTT       FAIR     N/A N/A N/A NE8       29.63F
FALCON         FAIR      31  15  52 N14       29.65F WCI  20
FORT CARSON    FAIR      33  14  45 N10       29.62F WCI  25
LIMON          FAIR      25  16  68 W5        29.66F WCI  19
MONUMENT HILL  FAIR      23  16  74 N8        29.68F WCI  14
TRINIDAD       FAIR      44  24  45 SW12      29.66F
$$

COZ042>045-048>051-090-091-230900-
...NORTHEAST COLORADO...

CITY           SKY/WX    TMP DP  RH WIND       PRES   REMARKS
GREELEY ARPT   FAIR      29  25  85 N8        29.73F WCI  21
AKRON          FAIR      32  24  72 E16G24    29.68F WCI  21
BURLINGTON     FAIR      44  22  41 E15       29.65F
WRAY           NOT AVBL
STERLING       FAIR      34  28  80 NE7       29.71F WCI  28
HOLYOKE        FAIR      36  32  87 NE16      29.73F
FORT MORGAN    FAIR      30  20  67 NE13      29.70F WCI  20
$$

COZ086-089-092>099-230900-
...SOUTHEAST COLORADO...

CITY           SKY/WX    TMP DP  RH WIND       PRES   REMARKS
PUEBLO         FAIR      41  17  38 N15       29.62F
LA JUNTA       FAIR      52  26  36 SW12      29.60F
LAMAR          FAIR      45  26  47 E7        29.58F
SPRINGFIELD      N/A     56  26  31 W18G25    29.62F
$$




USA.gov is the U.S. government's official web portal to all federal, state and local government web resources and services.